Location: BAF
(53.9483°N, 27.7497°E)
Time: 17:41:48
(UTC+02:00)

ISS - Visible Passes

Search period start: 23 January 2018 00:00
Search period end: 02 February 2018 00:00
Orbit: 402 x 407 km, 51.6° (Epoch: 23 January)

Date Brightness Start Highest point End Pass type
(mag) Time Alt. Az. Time Alt. Az. Time Alt. Az.
27 Jan -1.5 19:05:21 10° SSW 19:06:28 16° S 19:06:28 16° S visible
28 Jan -1.7 18:13:50 10° S 18:15:46 15° SE 18:16:25 14° SE visible
28 Jan -0.9 19:48:33 10° SW 19:49:04 14° SW 19:49:04 14° SW visible
29 Jan -2.6 18:56:27 10° SW 18:58:57 30° S 18:58:57 30° S visible
30 Jan -2.2 18:04:29 10° SSW 18:07:10 24° SSE 18:08:47 16° ESE visible
30 Jan -1.5 19:40:03 10° WSW 19:41:26 22° WSW 19:41:26 22° WSW visible
31 Jan -3.3 18:47:46 10° WSW 18:50:55 44° SSE 18:51:12 43° SSE visible
01 Feb -2.8 17:55:36 10° SW 17:58:36 35° SSE 18:00:56 15° E visible
01 Feb -2.2 19:31:35 10° W 19:33:35 33° WSW 19:33:35 33° WSW visible
